Regional Weather Roundup
Issued by NWS

Home | Current Version | Previous Version | Text Only | Print | Product List | Glossary Off
Versions: 1 2 3 4 5 6 7 8 9 10 11 12 13 14 15 16 17 18 19 20 21 22 23 24 25 26 27 28 29 30 31 32 33 34 35 36 37 38 39 40 41 42 43 44 45 46 47 48 49 50

000
ASUS43 KFSD 180902
RWRSD

WEATHER ROUNDUP FOR SOUTH DAKOTA
NATIONAL WEATHER SERVICE SIOUX FALLS SD
300 AM CST THU DEC 18 2014

NOTE: "FAIR" INDICATES FEW OR NO CLOUDS BELOW 12,000 FEET WITH NO
SIGNIFICANT WEATHER AND/OR OBSTRUCTIONS TO VISIBILITY.


SDZ001>005-009-010-012>017-181000-
NORTHWEST AND NORTH CENTRAL SOUTH DAKOTA

CITY           SKY/WX    TMP DP  RH WIND       PRES   REMARKS
BUFFALO          N/A     24  20  84 S10       29.90S WCI  14
FAITH            N/A     21  16  81 S8        30.05S WCI  11
MOBRIDGE       CLOUDY    18  15  88 SE8       30.11S WCI   8
$$

SDZ012>016-024>037-041>051-057-063-072>074-181000-
SOUTHWEST AND SOUTH CENTRAL SOUTH DAKOTA

CITY           SKY/WX    TMP DP  RH WIND       PRES   REMARKS
RAPID CTY ARPT CLOUDY    23  21  92 S9        29.99S WCI  13
PIERRE         CLOUDY    19  18  95 SE10      30.12S FOG     WCI   7
CUSTER         CLEAR     27  18  69 NW5       29.91R WCI  22
ELLSWORTH AFB  CLOUDY    22  20  92 S5        29.98  WCI  16
PHILIP         CLOUDY    23  20  88 NE6       30.06S WCI  16
PINE RIDGE     CLOUDY    16  13  88 S7        30.01S WCI   6
WINNER         CLOUDY    23  20  88 SE10      30.12R WCI  12
$$

SDZ004>011-016>023-039-040-181000-
NORTHEAST SOUTH DAKOTA

CITY           SKY/WX    TMP DP  RH WIND       PRES   REMARKS
ABERDEEN       CLOUDY    17  13  84 SE7       30.23F WCI   8
WATERTOWN      PTCLDY    10   6  84 SE3       30.21F
SISSETON         N/A      2   0  91 S5        30.27S WCI  -8
$$

SDZ017-020-022-023-036>040-048>070-181000-
SOUTHEAST SOUTH DAKOTA

CITY           SKY/WX    TMP DP  RH WIND       PRES   REMARKS
SIOUX FALLS    CLOUDY    16  12  84 E5        30.23F WCI   9
HURON          CLOUDY    16  12  84 SE5       30.21F WCI   9
MITCHELL       CLOUDY    19  15  84 SE7       30.22F WCI  10
YANKTON        CLOUDY    19  16  86 E6        30.24S WCI  11
$$

ABBREVIATIONS USED IN REMARKS
   TC - TEMPERATURE IN CELSIUS
  WCI - WIND CHILL INDEX
   HX - HEAT INDEX
  VSB - VISIBILITY




USA.gov is the U.S. government's official web portal to all federal, state and local government web resources and services.